Flag for Nicaragua Weather past 2 weeks in Masaya, Nicaragua

Now
86 °F

Scattered clouds.


Feels Like: 93 °F
Forecast: 76 / 89 °F
Wind: 14 mph from East

Location: Managua A. C. Sandino

Current Time: Jul 4, 2015 at 9:42:31 AM

Latest Report: Jul 4, 2015 at 8:00 AM


Visibility: N/A

Pressure: 29.83 "Hg

Humidity: 66%

Dew point: 73 °F

Location of MasayaLocation

Historic Weather in Masaya — Graph

°F

Masaya temperature yesterday

Maximum temperature yesterday: 91 °F (at 2:00 PM)
Minimum temperature yesterday: 77 °F (at 6:00 AM)
Average temperature yesterday: 85 °F

Past Weeks' High & Low Weather Summary

 TemperatureHumidityPressure
High95 °F (Jun 24, 1:00 PM)94% (Jun 20, 6:00 AM)29.92 "Hg (Jun 20, 6:00 AM)
Low64 °F (Jun 25, 7:00 AM)41% (Jun 30, 2:00 PM)29.71 "Hg (Jul 2, 3:00 PM)
Average84 °F68%29.83 "Hg
* Reported Jun 19 8:00 AM — Jul 4 8:00 AM, Masaya, Weather by CustomWeather, © 2015

Note: Actual official high and low records may vary slightly from our data, if they occured in-between our weather recording intervals... More about our weather records

Advertising

Masaya weather history for previous 24 hours

 ConditionsComfort  
Time TempWeatherWind HumidityBarometerVisibility
8:00 AM
Sat, Jul 4
86 °FScattered clouds.14 mph66%29.83 "HgN/A
7:00 AM81 °FScattered clouds.9 mph79%29.86 "HgN/A
6:00 AM77 °FScattered clouds.9 mph83%29.83 "HgN/A
5:00 AM77 °FPassing clouds.9 mph83%29.80 "HgN/A
4:00 AM77 °FPassing clouds.5 mph83%29.80 "HgN/A
1:00 AM81 °FPassing clouds.9 mph74%29.83 "HgN/A
12:45 AM81 °FWarm.No wind79%29.83 "HgN/A
12:00 AM81 °FWarm.No wind79%29.83 "HgN/A
11:00 PM
Fri, Jul 3
81 °FPassing clouds.7 mph74%29.83 "HgN/A
10:00 PM82 °FPassing clouds.14 mph70%29.83 "HgN/A
9:00 PM82 °FPassing clouds.16 mph70%29.80 "HgN/A
8:00 PM84 °FPassing clouds.9 mph66%29.77 "HgN/A
7:00 PM84 °FPassing clouds.12 mph62%29.77 "HgN/A
6:00 PM88 °FScattered clouds.16 mph55%29.74 "HgN/A
5:00 PM86 °FScattered clouds.12 mph62%29.74 "HgN/A
4:00 PM90 °FPartly sunny.14 mph55%29.74 "HgN/A
3:00 PM90 °FPartly sunny.14 mph55%29.71 "HgN/A
2:00 PM91 °FHot.7 mph52%29.71 "HgN/A
1:00 PM88 °FScattered clouds.14 mph59%29.74 "HgN/A
12:00 PM90 °FPartly sunny.12 mph55%29.77 "HgN/A
11:00 AM88 °FScattered clouds.16 mph59%29.80 "HgN/A
10:00 AM88 °FScattered clouds.16 mph62%29.80 "HgN/A
9:00 AM86 °FScattered clouds.16 mph62%29.83 "HgN/A
Weather by CustomWeather, © 2015

See weather overviewHow to use our weather pages